When you browse on this site, cookies collect data to enhance your experience and personalize the content and advertising you see.
Visit our Privacy Policy to learn more. By continuing to use the site, you agree to this use of cookies and data.
  • In Hungary
  • List of Countries
  • For 7 days
  • Water Temperature
  • Satellite Maps
  • Weather Map
  • News
  • Weather Widgets
  • user-avatar
    Login

    Hourly Weather Kasane

    Today, 13 December, Thursday

    Time Temperature Precipitation Wind Pressure Humidity
    00:00 +25°C° 0 mm 2 mps 680 mmHg 38%
    01:00 +24°C° 0 mm 1 mps 680 mmHg 42%
    02:00 +24°C° 0 mm 1 mps 680 mmHg 54%
    03:00 +23°C° 0 mm 1 mps 680 mmHg 57%
    04:00 +23°C° 0 mm 1 mps 680 mmHg 61%
    05:00 +22°C° 0 mm 1 mps 680 mmHg 64%
    06:00 +24°C° 0 mm 1 mps 680 mmHg 58%
    07:00 +26°C° 0 mm 1 mps 681 mmHg 52%
    08:00 +28°C° 0 mm 2 mps 682 mmHg 45%
    09:00 +31°C° 0 mm 2 mps 682 mmHg 36%
    10:00 +34°C° 0 mm 2 mps 682 mmHg 27%
    11:00 +36°C° 0 mm 2 mps 682 mmHg 18%
    12:00 +37°C° 0 mm 3 mps 682 mmHg 16%
    13:00 +38°C° 0 mm 3 mps 681 mmHg 14%
    14:00 +39°C° 0 mm 3 mps 681 mmHg 12%
    15:00 +40°C° 0 mm 4 mps 680 mmHg 12%
    16:00 +38°C° 0 mm 4 mps 679 mmHg 13%
    17:00 +38°C° 0 mm 4 mps 679 mmHg 13%
    18:00 +35°C° 0 mm 3 mps 679 mmHg 18%
    19:00 +33°C° 0 mm 3 mps 679 mmHg 22%
    20:00 +29°C° 0 mm 2 mps 679 mmHg 26%
    21:00 +29°C° 0 mm 2 mps 679 mmHg 29%
    22:00 +28°C° 0 mm 2 mps 680 mmHg 31%
    23:00 +27°C° 0 mm 2 mps 680 mmHg 33%

    Tomorrow, 14 December, Friday

    Time Temperature Precipitation Wind Pressure Humidity
    00:00 +26°C° 0 mm 2 mps 680 mmHg 34%
    01:00 +26°C° 0 mm 2 mps 680 mmHg 35%
    02:00 +25°C° 0 mm 2 mps 680 mmHg 37%
    03:00 +25°C° 0 mm 2 mps 680 mmHg 39%
    04:00 +24°C° 0 mm 1 mps 680 mmHg 42%
    05:00 +24°C° 0 mm 1 mps 680 mmHg 44%
    06:00 +26°C° 0 mm 2 mps 681 mmHg 40%
    07:00 +28°C° 0 mm 2 mps 681 mmHg 36%
    08:00 +30°C° 0 mm 2 mps 682 mmHg 32%
    09:00 +33°C° 0 mm 3 mps 682 mmHg 27%
    10:00 +35°C° 0 mm 3 mps 682 mmHg 23%
    11:00 +38°C° 0 mm 3 mps 682 mmHg 18%
    12:00 +38°C° 0 mm 4 mps 682 mmHg 16%
    13:00 +40°C° 0 mm 4 mps 681 mmHg 14%
    14:00 +41°C° 0 mm 5 mps 680 mmHg 13%
    15:00 +41°C° 0 mm 5 mps 680 mmHg 14%
    16:00 +40°C° 0 mm 5 mps 679 mmHg 15%
    17:00 +39°C° 0 mm 5 mps 678 mmHg 17%
    18:00 +36°C° 0 mm 4 mps 678 mmHg 21%
    19:00 +34°C° 0 mm 3 mps 679 mmHg 26%
    20:00 +30°C° 0 mm 2 mps 679 mmHg 30%
    21:00 +30°C° 0 mm 2 mps 679 mmHg 33%
    22:00 +29°C° 0 mm 2 mps 679 mmHg 36%
    23:00 +28°C° 0 mm 2 mps 680 mmHg 38%

    Day after tomorrow, 15 December, Saturday

    Time Temperature Precipitation Wind Pressure Humidity
    00:00 +27°C° 0 mm 2 mps 680 mmHg 41%
    01:00 +26°C° 0 mm 2 mps 679 mmHg 43%
    02:00 +26°C° 0 mm 2 mps 679 mmHg 45%
    03:00 +25°C° 0 mm 2 mps 679 mmHg 48%
    04:00 +25°C° 0 mm 2 mps 679 mmHg 50%
    05:00 +24°C° 0 mm 2 mps 680 mmHg 52%
    06:00 +26°C° 0 mm 2 mps 680 mmHg 50%
    07:00 +27°C° 0 mm 3 mps 681 mmHg 48%
    08:00 +29°C° 0 mm 4 mps 682 mmHg 45%
    09:00 +31°C° 0 mm 3 mps 682 mmHg 41%
    10:00 +34°C° 0 mm 3 mps 682 mmHg 36%
    11:00 +36°C° 0 mm 3 mps 682 mmHg 31%
    12:00 +36°C° 0 mm 3 mps 681 mmHg 30%
    13:00 +36°C° 0 mm 3 mps 681 mmHg 29%
    14:00 +36°C° 0 mm 2 mps 680 mmHg 28%
    15:00 +36°C° 0 mm 3 mps 679 mmHg 28%
    16:00 +36°C° 0 mm 3 mps 679 mmHg 28%
    17:00 +36°C° 0 mm 3 mps 678 mmHg 28%
    18:00 +34°C° 0 mm 2 mps 679 mmHg 31%
    19:00 +31°C° 0 mm 2 mps 679 mmHg 35%
    20:00 +30°C° 0 mm 2 mps 679 mmHg 38%
    21:00 +29°C° 0 mm 2 mps 679 mmHg 40%
    22:00 +28°C° 0 mm 1 mps 679 mmHg 42%
    23:00 +27°C° 0 mm 1 mps 680 mmHg 44%

    16 December, Sunday

    Time Temperature Precipitation Wind Pressure Humidity
    00:00 +27°C° 0 mm 1 mps 679 mmHg 45%
    01:00 +26°C° 0 mm 1 mps 679 mmHg 46%
    02:00 +26°C° 0 mm 1 mps 678 mmHg 47%
    03:00 +25°C° 0 mm 1 mps 679 mmHg 49%
    04:00 +25°C° 0 mm 1 mps 679 mmHg 50%
    05:00 +25°C° 0 mm 1 mps 679 mmHg 51%
    06:00 +26°C° 0 mm 2 mps 680 mmHg 49%
    07:00 +27°C° 0 mm 2 mps 681 mmHg 48%
    08:00 +28°C° 0 mm 2 mps 682 mmHg 46%
    09:00 +30°C° 0 mm 2 mps 682 mmHg 41%
    10:00 +32°C° 0 mm 2 mps 682 mmHg 37%
    11:00 +35°C° 0 mm 2 mps 682 mmHg 33%
    12:00 +36°C° 0 mm 2 mps 681 mmHg 31%
    13:00 +36°C° 0 mm 2 mps 680 mmHg 28%
    14:00 +37°C° 0 mm 2 mps 679 mmHg 26%
    15:00 +36°C° 0 mm 2 mps 679 mmHg 26%
    16:00 +36°C° 0 mm 3 mps 678 mmHg 27%
    17:00 +36°C° 0 mm 3 mps 678 mmHg 28%
    18:00 +34°C° 0 mm 3 mps 678 mmHg 32%
    19:00 +31°C° 0 mm 3 mps 679 mmHg 36%
    20:00 +30°C° 0 mm 2 mps 679 mmHg 41%
    21:00 +29°C° 0 mm 2 mps 679 mmHg 43%
    22:00 +28°C° 0 mm 2 mps 679 mmHg 45%
    23:00 +28°C° 0 mm 2 mps 679 mmHg 47%

    17 December, Monday

    Time Temperature Precipitation Wind Pressure Humidity
    00:00 +27°C° 0 mm 2 mps 679 mmHg 50%
    01:00 +26°C° 0 mm 2 mps 679 mmHg 54%
    02:00 +25°C° 0 mm 2 mps 678 mmHg 58%
    03:00 +25°C° 0 mm 1 mps 678 mmHg 62%
    04:00 +24°C° 0 mm 1 mps 679 mmHg 65%
    05:00 +22°C° 0 mm 0 mps 679 mmHg 69%
    06:00 +25°C° 0 mm 1 mps 680 mmHg 65%
    07:00 +26°C° 0 mm 1 mps 680 mmHg 62%
    08:00 +27°C° 0 mm 1 mps 681 mmHg 58%
    09:00 +30°C° 0 mm 2 mps 681 mmHg 50%
    10:00 +32°C° 0 mm 2 mps 681 mmHg 42%
    11:00 +36°C° 0 mm 2 mps 681 mmHg 34%
    12:00 +36°C° 0 mm 2 mps 680 mmHg 30%
    13:00 +37°C° 0 mm 3 mps 679 mmHg 27%
    14:00 +38°C° 0 mm 3 mps 678 mmHg 24%
    15:00 +37°C° 0 mm 3 mps 678 mmHg 23%
    16:00 +37°C° 0 mm 3 mps 678 mmHg 23%
    17:00 +37°C° 0 mm 3 mps 678 mmHg 23%
    18:00 +35°C° 0 mm 3 mps 678 mmHg 26%
    19:00 +34°C° 0 mm 3 mps 678 mmHg 30%
    20:00 +31°C° 0 mm 3 mps 679 mmHg 33%
    21:00 +30°C° 0 mm 3 mps 679 mmHg 38%
    22:00 +29°C° 0 mm 3 mps 679 mmHg 44%
    23:00 +27°C° 0 mm 2 mps 679 mmHg 49%

    18 December, Tuesday

    Time Temperature Precipitation Wind Pressure Humidity
    00:00 +26°C° 0 mm 2 mps 678 mmHg 53%
    01:00 +26°C° 0 mm 2 mps 678 mmHg 57%
    02:00 +25°C° 0 mm 1 mps 678 mmHg 61%
    03:00 +24°C° 0 mm 1 mps 678 mmHg 63%
    04:00 +24°C° 0 mm 1 mps 678 mmHg 65%
    05:00 +23°C° 0 mm 1 mps 678 mmHg 67%
    06:00 +25°C° 0 mm 1 mps 679 mmHg 62%
    07:00 +27°C° 0 mm 2 mps 680 mmHg 56%
    08:00 +28°C° 0 mm 2 mps 680 mmHg 51%
    09:00 +31°C° 0 mm 3 mps 680 mmHg 44%
    10:00 +34°C° 0 mm 3 mps 680 mmHg 38%
    11:00 +36°C° 0 mm 3 mps 680 mmHg 31%
    12:00 +37°C° 0 mm 3 mps 679 mmHg 29%
    13:00 +37°C° 0 mm 3 mps 679 mmHg 27%
    14:00 +38°C° 0 mm 3 mps 678 mmHg 25%
    15:00 +38°C° 0 mm 3 mps 677 mmHg 25%
    16:00 +37°C° 0 mm 3 mps 677 mmHg 26%
    17:00 +37°C° 0 mm 3 mps 677 mmHg 26%
    18:00 +35°C° 0 mm 2 mps 677 mmHg 29%
    19:00 +34°C° 0 mm 2 mps 677 mmHg 33%
    20:00 +31°C° 0 mm 2 mps 677 mmHg 36%
    21:00 +30°C° 0 mm 2 mps 677 mmHg 40%
    22:00 +29°C° 0 mm 2 mps 678 mmHg 43%
    23:00 +28°C° 0 mm 2 mps 678 mmHg 47%
    Show more